Flag for Guinea Weather past 2 weeks in Conakry, Guinea

Now
79 °F

Passing clouds.


Feels Like: 82 °F
Forecast: 77 / 81 °F
Wind: 14 mph from West

Location: Lungi

Current Time: Jul 30, 2014 at 1:48:01 AM

Latest Report: Jul 30, 2014 at 12:30 AM


Visibility: N/A

Pressure: 29.95 "Hg

Humidity: 89%

Dew point: 75 °F

Location of ConakryLocation

Historic Weather in Conakry — Graph

°F

Conakry temperature yesterday

Maximum temperature yesterday: 82 °F (at 11:00 AM)
Minimum temperature yesterday: 75 °F (at 1:00 AM)
Average temperature yesterday: 79 °F

Past Weeks' High & Low Weather Summary

 TemperatureHumidityPressure
High86 °F (Jul 19, 5:00 PM)100% (Jul 16, 8:00 AM)30.04 "Hg (Jul 16, 8:00 AM)
Low70 °F (Jul 28, 12:00 AM)70% (Jul 19, 4:00 PM)29.83 "Hg (Jul 27, 6:00 PM)
Average79 °F87%29.95 "Hg
* Reported Midnight between Jul 14 and Jul 15 — Jul 30 12:30 AM, Conakry, Weather by CustomWeather, © 2014

Note: Actual official high and low records may vary slightly from our data, if they occured in-between our weather recording intervals... More about our weather records

Advertising

Conakry weather history for previous 24 hours

 ConditionsComfort  
Time TempWeatherWind HumidityBarometerVisibility
12:30 AM
Jul 30
79 °FPassing clouds.14 mph89%29.95 "HgN/A
12:00 AM79 °FPassing clouds.14 mph89%29.95 "HgN/A
11:00 PM
Jul 29
77 °FPassing clouds.12 mph94%29.92 "HgN/A
10:00 PM79 °FPassing clouds.14 mph89%29.92 "HgN/A
9:00 PM79 °FPassing clouds.10 mph89%29.92 "HgN/A
8:00 PM77 °FPassing clouds.7 mph89%29.92 "HgN/A
7:00 PM81 °FPartly sunny.7 mph79%29.89 "HgN/A
6:00 PM82 °FPartly sunny.7 mph79%29.89 "HgN/A
5:00 PM82 °FScattered clouds.6 mph79%29.89 "HgN/A
4:30 PM82 °FScattered clouds.6 mph74%29.89 "HgN/A
4:00 PM82 °FScattered clouds.7 mph74%29.89 "HgN/A
3:30 PM82 °FScattered clouds.8 mph74%29.89 "HgN/A
12:30 PM82 °FScattered clouds.9 mph79%29.92 "HgN/A
11:00 AM82 °FScattered clouds.7 mph84%29.95 "HgN/A
9:30 AM79 °FPartly sunny.7 mph84%29.95 "HgN/A
9:00 AM79 °FPartly sunny.7 mph84%29.92 "HgN/A
8:30 AM77 °FPartly sunny.7 mph94%29.92 "HgN/A
8:00 AM77 °FRain. Partly sunny.6 mph94%29.92 "Hg5 mi
7:30 AM75 °FRain. Partly sunny.9 mph94%29.92 "Hg5 mi
2:00 AM75 °FPassing clouds.6 mph94%29.92 "HgN/A
1:00 AM75 °FPassing clouds.12 mph94%29.92 "HgN/A
Weather by CustomWeather, © 2014

See weather overviewHow to use our weather pages